DW1980 Weather Reports


Display with metric or nautical units.
time (UTC)temp
F
wind
direction
speed
MPH
gust
MPH
rain 1hr
in
rain 24hr
in
rain mn
in
humidity
%
barometer
mb
20260509141348 57 220 1.0 2.0 0.00 0.02 0.02 91 1012.7
20260509140837 57 153 1.0 2.0 0.00 0.02 0.02 92 1012.6
20260509140348 57 81 1.0 3.0 0.00 0.02 0.02 93 1012.7
20260509140121 56 149 0.0 2.0 0.00 0.02 0.02 93 1012.5
20260509140051 56 0 0.0 3.0 0.00 0.02 0.02 93 1011.9
20260509135855 56 146 0.0 2.0 0.00 0.02 0.02 94 1012.5
20260509135344 56 117 1.0 3.0 0.00 0.02 0.02 94 1012.6
20260509134854 55 176 1.0 3.0 0.00 0.02 0.02 95 1012.7
20260509134624 54 240 1.0 3.0 0.00 0.02 0.02 96 1012.6
20260509134540 54 227 0.0 3.0 0.00 0.02 0.02 95 1012.0
20260509134346 55 340 1.0 2.0 0.01 0.02 0.02 96 1012.5
20260509133836 55 113 1.0 2.0 0.01 0.02 0.02 97 1012.6
20260509133347 54 229 1.0 4.0 0.01 0.02 0.02 97 1012.8
20260509133112 54 169 0.0 4.0 0.01 0.02 0.02 97 1012.9
20260509133038 54 169 0.0 4.0 0.01 0.02 0.02 97 1012.2
20260509132854 54 145 1.0 4.0 0.01 0.02 0.02 97 1013.0
20260509132345 54 130 0.0 3.0 0.01 0.02 0.02 97 1013.2
20260509131838 53 178 1.0 3.0 0.01 0.02 0.02 97 1013.0
20260509131622 53 157 0.0 2.0 0.01 0.02 0.02 97 1012.9
20260509131539 53 0 0.0 2.0 0.01 0.02 0.02 97 1012.1
20260509131348 53 157 1.0 2.0 0.01 0.02 0.02 97 1012.7
20260509130857 53 187 1.0 2.0 0.01 0.02 0.02 97 1012.9
20260509130347 52 162 0.0 1.0 0.01 0.02 0.02 97 1013.1
20260509130107 52 162 0.0 4.0 0.01 0.02 0.02 97 1013.2
20260509130039 52 0 0.0 4.0 0.01 0.02 0.02 97 1012.6
20260509125854 52 162 0.0 4.0 0.01 0.02 0.02 97 1013.2
20260509125343 52 234 3.0 4.0 0.01 0.02 0.02 97 1013.5
20260509124853 52 193 1.0 2.0 0.01 0.02 0.02 97 1013.1
20260509124536 51 30 0.0 2.0 0.01 0.02 0.02 97 1012.3
20260509124502 51 30 0.0 2.0 0.01 0.02 0.02 97 1013.1
20260509124401 52 30 0.0 2.0 0.00 0.01 0.01 97 1013.1
20260509123851 52 59 0.0 2.0 0.00 0.01 0.01 97 1013.1
20260509123340 52 59 1.0 3.0 0.00 0.01 0.01 97 1013.0
20260509123121 51 179 0.0 3.0 0.00 0.01 0.01 97 1013.4
20260509123037 51 179 0.0 4.0 0.00 0.01 0.01 97 1012.8
20260509122846 52 167 1.0 3.0 0.00 0.01 0.01 97 1013.3
20260509122336 52 180 1.0 3.0 0.00 0.01 0.01 97 1013.3
20260509121847 52 162 0.0 1.0 0.00 0.01 0.01 97 1013.1
20260509121615 51 162 0.0 1.0 0.00 0.01 0.01 97 1013.1
20260509121539 51 0 0.0 1.0 0.00 0.01 0.01 97 1012.5
20260509121338 51 162 0.0 1.0 0.00 0.01 0.01 97 1013.3
20260509120849 51 161 0.0 1.0 0.00 0.01 0.01 97 1013.4
20260509120340 51 154 0.0 3.0 0.00 0.01 0.01 97 1013.4
20260509120105 51 154 0.0 3.0 0.00 0.01 0.01 97 1013.4
20260509120044 51 0 1.0 4.0 0.00 0.01 0.01 97 1012.9
20260509115846 51 154 1.0 4.0 0.00 0.01 0.01 97 1013.4
20260509115337 51 207 0.0 3.0 0.00 0.01 0.01 97 1013.5
20260509114845 51 200 2.0 3.0 0.00 0.01 0.01 97 1013.7
20260509114614 50 280 0.0 2.0 0.00 0.01 0.01 97 1013.7
20260509114538 50 0 0.0 2.0 0.00 0.01 0.01 97 1013.0
20260509114417 51 343 0.0 2.0 0.00 0.01 0.01 97 1013.7
20260509113846 51 240 0.0 2.0 0.00 0.01 0.01 97 1013.5
20260509113356 51 240 0.0 2.0 0.00 0.01 0.01 97 1013.7
20260509113121 50 240 0.0 2.0 0.00 0.01 0.01 97 1013.7
20260509113044 50 0 0.0 2.0 0.00 0.01 0.01 97 1013.2
20260509112843 50 304 1.0 2.0 0.00 0.01 0.01 97 1013.6
20260509112353 50 355 0.0 3.0 0.00 0.01 0.01 97 1013.4
20260509111844 50 355 1.0 3.0 0.00 0.01 0.01 97 1013.5
20260509111612 50 247 1.0 3.0 0.00 0.01 0.01 97 1013.8
20260509111548 50 247 1.0 3.0 0.00 0.01 0.01 96 1013.3
20260509111415 50 273 1.0 2.0 0.00 0.01 0.01 97 1013.7
20260509110843 50 299 0.0 1.0 0.00 0.01 0.01 97 1013.3
20260509110354 50 298 0.0 1.0 0.00 0.01 0.01 97 1013.2
20260509110119 49 298 0.0 1.0 0.00 0.01 0.01 97 1013.3
20260509110042 49 0 0.0 1.0 0.00 0.01 0.01 96 1012.8
20260509105841 50 298 0.0 0.0 0.00 0.01 0.01 97 1013.3
20260509105352 50 298 0.0 0.0 0.00 0.01 0.01 97 1013.3
20260509104842 50 298 0.0 0.0 0.00 0.01 0.01 97 1013.3
20260509104613 49 298 0.0 1.0 0.00 0.01 0.01 97 1013.3
20260509104543 49 0 0.0 1.0 0.00 0.01 0.01 96 1012.7
20260509104354 49 298 0.0 1.0 0.00 0.01 0.01 97 1013.3
20260509103844 49 298 0.0 1.0 0.00 0.01 0.01 97 1013.2
20260509103356 49 298 0.0 0.0 0.00 0.01 0.01 97 1013.0
20260509103119 49 298 0.0 0.0 0.00 0.01 0.01 97 1013.0
20260509103039 49 0 0.0 0.0 0.00 0.01 0.01 96 1012.3
20260509102845 49 298 0.0 0.0 0.00 0.01 0.01 97 1013.0
20260509102355 49 298 0.0 1.0 0.00 0.01 0.01 97 1013.0
20260509101846 49 298 0.0 1.0 0.00 0.01 0.01 97 1012.9
20260509101611 49 298 0.0 1.0 0.00 0.01 0.01 97 1012.9
20260509101550 49 0 0.0 1.0 0.00 0.01 0.01 96 1012.2
20260509101337 49 298 0.0 1.0 0.00 0.01 0.01 97 1012.9
20260509100847 49 298 0.0 2.0 0.00 0.01 0.01 97 1012.9
20260509100358 49 298 1.0 2.0 0.00 0.01 0.01 97 1012.8
20260509100120 49 262 0.0 1.0 0.00 0.01 0.01 97 1012.9
20260509100038 49 0 0.0 1.0 0.00 0.01 0.01 96 1012.1
20260509095846 49 262 0.0 1.0 0.00 0.01 0.01 97 1012.9
20260509095336 49 262 0.0 1.0 0.00 0.01 0.01 97 1012.9
20260509094846 49 262 0.0 1.0 0.00 0.01 0.01 97 1013.1
20260509094614 49 262 0.0 1.0 0.00 0.01 0.01 97 1013.2
20260509094544 49 0 0.0 2.0 0.00 0.01 0.01 96 1012.4
20260509094417 49 262 1.0 1.0 0.00 0.01 0.01 96 1013.1
20260509093846 49 262 0.0 2.0 0.00 0.01 0.01 96 1013.2
20260509093356 49 262 0.0 2.0 0.00 0.01 0.01 96 1013.0
20260509093121 49 262 0.0 2.0 0.00 0.01 0.01 96 1013.0
20260509093053 49 0 0.0 2.0 0.00 0.01 0.01 96 1012.2
20260509092843 49 262 0.0 2.0 0.00 0.01 0.01 96 1013.0
20260509092353 49 262 0.0 2.0 0.00 0.01 0.01 96 1013.0
20260509091905 49 262 0.0 1.0 0.00 0.01 0.01 96 1013.1
20260509091613 49 262 0.0 1.0 0.00 0.01 0.01 96 1013.2
20260509091540 49 262 0.0 1.0 0.00 0.01 0.01 96 1012.4
20260509091355 49 262 0.0 1.0 0.00 0.01 0.01 96 1013.1
20260509090845 49 262 0.0 1.0 0.00 0.01 0.01 96 1013.0
20260509090356 49 262 0.0 1.0 0.00 0.01 0.01 96 1013.0
20260509090120 49 262 0.0 0.0 0.00 0.01 0.01 96 1013.1
20260509090039 49 0 0.0 0.0 0.00 0.01 0.01 96 1012.3
20260509085842 49 262 0.0 0.0 0.00 0.02 0.01 96 1013.0
20260509085352 49 262 0.0 1.0 0.00 0.02 0.01 96 1013.1
20260509084843 49 262 0.0 1.0 0.00 0.02 0.01 96 1013.2
20260509084611 49 262 0.0 1.0 0.00 0.02 0.01 96 1013.2
20260509084549 49 0 0.0 1.0 0.00 0.02 0.01 96 1012.4
20260509084414 49 262 0.0 1.0 0.00 0.02 0.01 96 1013.1
20260509083905 49 262 0.0 1.0 0.00 0.02 0.01 96 1013.1
20260509083416 49 262 0.0 0.0 0.00 0.02 0.01 96 1013.1
20260509083119 49 262 0.0 1.0 0.00 0.02 0.01 96 1013.2
20260509083042 49 0 0.0 1.0 0.00 0.02 0.01 96 1012.4
20260509082842 49 262 0.0 1.0 0.00 0.02 0.01 96 1013.1
20260509082351 49 262 0.0 1.0 0.00 0.02 0.01 96 1013.1
20260509081841 49 262 0.0 0.0 0.00 0.02 0.01 96 1013.3
20260509081610 49 262 0.0 0.0 0.00 0.02 0.01 96 1013.4
20260509081543 49 0 0.0 0.0 0.00 0.02 0.01 95 1012.6
20260509081413 49 262 0.0 0.0 0.00 0.02 0.01 96 1013.3
20260509080842 49 262 0.0 1.0 0.00 0.02 0.01 96 1013.3
20260509080414 49 262 0.0 1.0 0.01 0.02 0.01 96 1013.3
20260509080140 48 262 0.0 1.0 0.01 0.02 0.01 96 1013.4
20260509080053 48 0 0.0 1.0 0.01 0.02 0.01 95 1012.6
20260509075840 49 262 0.0 0.0 0.01 0.03 0.01 96 1013.3
20260509075414 49 262 0.0 1.0 0.01 0.03 0.01 96 1013.2
20260509074842 49 262 0.0 0.0 0.01 0.03 0.01 96 1013.2
20260509074611 48 262 0.0 0.0 0.01 0.03 0.01 96 1013.3
20260509074538 48 0 0.0 1.0 0.01 0.03 0.01 95 1012.5
20260509074353 49 262 0.0 1.0 0.01 0.03 0.01 96 1013.2
20260509073844 49 262 0.0 1.0 0.01 0.03 0.01 95 1013.2
20260509073356 49 262 0.0 0.0 0.01 0.03 0.01 95 1013.2
20260509073217 48 262 0.0 0.0 0.01 0.03 0.01 95 1013.2
20260509073045 48 0 0.0 1.0 0.01 0.03 0.01 95 1012.4
20260509072842 49 262 0.0 0.0 0.01 0.03 0.01 95 1013.0
20260509072352 49 262 0.0 1.0 0.01 0.03 0.01 95 1013.0
20260509071844 49 262 0.0 1.0 0.01 0.03 0.01 95 1013.0
20260509071611 48 262 0.0 1.0 0.01 0.03 0.01 95 1013.0
20260509071540 48 0 0.0 1.0 0.01 0.03 0.01 95 1012.4
20260509071353 49 262 0.0 1.0 0.01 0.03 0.01 95 1013.0
20260509070843 49 262 0.0 0.0 0.01 0.03 0.01 95 1013.0
20260509070355 49 262 0.0 0.0 0.00 0.02 0.00 95 1013.2
20260509070120 48 262 0.0 0.0 0.00 0.02 0.00 95 1013.3
20260509070044 48 0 0.0 0.0 0.00 0.02 0.00 94 1012.6
20260509065846 48 262 0.0 0.0 0.00 0.05 0.00 95 1013.3
20260509065356 48 262 0.0 0.0 0.00 0.05 0.00 95 1013.2
20260509064845 48 262 0.0 0.0 0.00 0.05 0.00 95 1013.2
20260509064609 48 262 0.0 0.0 0.00 0.05 0.00 95 1013.2
20260509064541 48 0 0.0 0.0 0.00 0.05 0.00 94 1012.5
20260509064356 48 262 0.0 0.0 0.00 0.05 0.00 95 1013.1
20260509063906 48 262 0.0 0.0 0.00 0.05 0.00 94 1013.2
20260509063356 48 262 0.0 1.0 0.00 0.05 0.00 94 1013.1
20260509063038 48 0 0.0 1.0 0.00 0.05 0.00 94 1012.6
20260509063002 48 262 0.0 1.0 0.00 0.05 0.00 94 1013.3
20260509062902 48 262 0.0 1.0 0.00 0.05 0.00 94 1013.3
20260509062350 48 262 0.0 1.0 0.00 0.05 0.00 94 1013.3
20260509061841 48 262 0.0 1.0 0.00 0.05 0.00 94 1013.3
20260509061605 48 262 0.0 1.0 0.00 0.05 0.00 94 1013.5
20260509061536 48 262 0.0 1.0 0.00 0.05 0.00 93 1012.8
20260509061352 48 262 0.0 1.0 0.00 0.05 0.00 94 1013.4
20260509060841 48 262 0.0 1.0 0.00 0.05 0.00 93 1013.4
20260509060412 48 262 0.0 1.0 0.00 0.05 0.00 93 1013.8
20260509060111 47 262 0.0 1.0 0.00 0.05 0.00 93 1013.9
20260509060036 47 0 0.0 2.0 0.00 0.05 0.00 93 1013.2
20260509055838 48 262 0.0 1.0 0.00 0.05 0.00 93 1013.8
20260509055349 48 262 0.0 2.0 0.00 0.05 0.00 93 1013.8
20260509054839 48 262 2.0 2.0 0.00 0.05 0.00 93 1013.8
20260509054607 47 274 0.0 2.0 0.00 0.05 0.00 93 1013.7
20260509054547 47 330 0.0 1.0 0.00 0.05 0.00 92 1013.1
20260509054411 48 330 0.0 0.0 0.00 0.05 0.00 92 1013.5
20260509053840 48 330 0.0 0.0 0.00 0.05 0.00 92 1013.5
20260509053351 48 330 0.0 0.0 0.00 0.05 0.00 92 1013.7
20260509053117 47 330 0.0 0.0 0.00 0.05 0.00 92 1013.8
20260509053041 47 0 0.0 1.0 0.00 0.05 0.00 92 1013.3
20260509052838 48 330 0.0 1.0 0.00 0.05 0.00 92 1013.8
20260509052348 47 330 0.0 1.0 0.00 0.05 0.00 92 1013.9
20260509051836 47 330 0.0 1.0 0.00 0.05 0.00 92 1013.8
20260509051606 47 330 0.0 2.0 0.00 0.05 0.00 92 1013.9
20260509051548 47 0 0.0 2.0 0.00 0.05 0.00 91 1013.2
20260509051408 47 331 0.0 2.0 0.00 0.05 0.00 92 1013.8
20260509050837 47 335 1.0 2.0 0.00 0.05 0.00 91 1013.7
20260509050349 47 351 0.0 1.0 0.00 0.05 0.00 91 1013.7
20260509050113 47 351 0.0 1.0 0.00 0.05 0.00 91 1013.6
20260509050043 47 0 0.0 1.0 0.00 0.05 0.00 91 1013.1
20260509045916 47 351 0.0 1.0 0.00 0.05 0.00 91 1013.6
20260509045345 47 351 0.0 1.0 0.00 0.05 0.00 91 1013.7
20260509044854 48 351 0.0 0.0 0.00 0.05 0.00 90 1013.7
20260509044536 47 0 0.0 0.0 0.00 0.05 0.00 90 1013.0
20260509044504 47 351 0.0 0.0 0.00 0.05 0.00 90 1013.6
20260509044404 48 351 0.0 0.0 0.00 0.05 0.00 90 1013.6
20260509043853 48 351 0.0 1.0 0.00 0.05 0.00 90 1013.7
20260509043343 48 351 0.0 1.0 0.00 0.05 0.00 90 1013.7
20260509043108 48 351 0.0 1.0 0.00 0.05 0.00 90 1013.8
20260509043045 48 0 0.0 1.0 0.00 0.05 0.00 89 1013.3
20260509042850 48 351 0.0 1.0 0.00 0.05 0.00 90 1013.8
20260509042339 48 351 0.0 1.0 0.00 0.05 0.00 89 1013.8
20260509041911 49 351 0.0 1.0 0.00 0.05 0.00 89 1013.7
20260509041618 48 351 0.0 1.0 0.00 0.05 0.00 89 1013.8
20260509041541 48 0 0.0 0.0 0.00 0.05 0.00 88 1013.2
20260509041340 49 351 0.0 0.0 0.00 0.05 0.00 89 1013.8
20260509040850 49 351 0.0 0.0 0.00 0.05 0.00 89 1013.8
20260509040342 49 351 0.0 0.0 0.00 0.05 0.00 88 1013.7
20260509040112 49 351 0.0 0.0 0.00 0.05 0.00 88 1013.9
20260509040042 49 0 0.0 0.0 0.00 0.05 0.00 88 1013.3
20260509035911 50 351 0.0 0.0 0.00 0.05 0.05 88 1013.9
20260509035339 50 351 0.0 0.0 0.00 0.05 0.05 88 1013.8
20260509034850 50 351 0.0 0.0 0.00 0.05 0.05 88 1013.9
20260509034617 50 351 0.0 0.0 0.00 0.05 0.05 88 1014.0
20260509034543 50 0 0.0 0.0 0.00 0.05 0.05 88 1013.3
20260509034340 50 351 0.0 0.0 0.00 0.05 0.05 88 1013.9
20260509033910 50 351 0.0 1.0 0.00 0.05 0.05 88 1013.9
20260509033340 50 351 0.0 0.0 0.00 0.05 0.05 88 1014.0
20260509033106 50 351 0.0 0.0 0.00 0.05 0.05 87 1014.1
20260509033036 50 0 0.0 0.0 0.00 0.05 0.05 87 1013.3
20260509032847 50 351 0.0 0.0 0.00 0.05 0.05 87 1013.9
20260509032336 50 351 0.0 0.0 0.00 0.05 0.05 87 1013.9
20260509031848 50 351 0.0 0.0 0.00 0.05 0.05 87 1013.9
20260509031616 50 351 0.0 0.0 0.00 0.05 0.05 87 1013.9
20260509031545 50 0 0.0 1.0 0.00 0.05 0.05 87 1013.2
20260509031339 50 351 0.0 1.0 0.00 0.05 0.05 87 1013.9
20260509030849 50 351 0.0 1.0 0.00 0.05 0.05 87 1013.9
20260509030344 50 351 0.0 0.0 0.00 0.05 0.05 87 1013.9
20260509030103 50 351 0.0 0.0 0.00 0.05 0.05 86 1014.0
20260509030040 50 0 0.0 0.0 0.00 0.05 0.05 86 1013.3
20260509025851 50 351 0.0 0.0 0.00 0.05 0.05 86 1013.9
20260509025341 50 351 0.0 0.0 0.00 0.05 0.05 86 1013.9
20260509024849 50 351 0.0 0.0 0.00 0.05 0.05 86 1013.8
20260509024615 50 351 0.0 0.0 0.00 0.05 0.05 86 1013.9
20260509024539 50 0 0.0 0.0 0.00 0.05 0.05 85 1013.1
20260509024341 50 351 0.0 0.0 0.00 0.05 0.05 86 1013.7
20260509023851 50 351 0.0 0.0 0.00 0.05 0.05 85 1013.7
20260509023358 50 351 327.0 327.0 0.00 0.00 0.05 85 1013.6
20260509023112 50 351 0.0 0.0 0.00 0.05 0.05 85 1013.7
20260509023041 50 0 0.0 0.0 0.00 0.05 0.05 85 1013.0
20260509022839 50 351 0.0 0.0 0.00 0.05 0.05 85 1013.6
20260509022409 50 351 0.0 0.0 0.00 0.05 0.05 85 1013.7
20260509021837 50 351 0.0 0.0 0.00 0.05 0.05 85 1013.5
20260509021601 50 351 0.0 0.0 0.00 0.05 0.05 84 1013.6
20260509021538 50 0 0.0 0.0 0.00 0.05 0.05 84 1013.0
20260509021348 50 351 0.0 0.0 0.00 0.05 0.05 84 1013.5
20260509020837 50 351 0.0 0.0 0.00 0.05 0.05 84 1013.4
20260509020348 50 351 0.0 0.0 0.00 0.05 0.05 84 1013.3
20260509020112 50 351 0.0 0.0 0.00 0.05 0.05 83 1013.4
20260509020045 50 0 0.0 0.0 0.00 0.05 0.05 83 1012.6
20260509015854 50 351 0.0 0.0 0.00 0.05 0.05 83 1013.2
20260509015345 50 351 0.0 0.0 0.00 0.05 0.05 83 1013.2
20260509014835 50 351 0.0 0.0 0.00 0.05 0.05 83 1013.2
20260509014603 50 351 0.0 0.0 0.00 0.05 0.05 83 1013.2
20260509014545 50 0 0.0 0.0 0.00 0.05 0.05 82 1012.4
20260509014344 50 351 0.0 0.0 0.00 0.05 0.05 83 1013.1
20260509013835 50 351 0.0 1.0 0.00 0.05 0.05 82 1013.0
20260509013346 50 351 0.0 2.0 0.00 0.05 0.05 82 1013.0
20260509013110 50 351 0.0 2.0 0.00 0.05 0.05 83 1013.1
20260509013048 50 351 0.0 2.0 0.00 0.05 0.05 82 1012.3
20260509012852 50 351 1.0 2.0 0.00 0.05 0.05 83 1012.9
20260509012341 50 351 1.0 2.0 0.00 0.05 0.05 82 1012.9
20260509011852 50 257 0.0 1.0 0.00 0.05 0.05 82 1012.9
20260509011620 50 257 0.0 2.0 0.00 0.05 0.05 82 1013.0
20260509011542 50 0 0.0 2.0 0.00 0.05 0.05 81 1012.1
20260509011342 50 257 0.0 2.0 0.00 0.05 0.05 81 1012.9
20260509010853 51 257 1.0 2.0 0.00 0.05 0.05 81 1012.8
20260509010344 51 257 0.0 1.0 0.00 0.05 0.05 80 1012.8
20260509010110 50 257 0.0 1.0 0.00 0.05 0.05 80 1012.9
20260509010038 50 0 0.0 1.0 0.00 0.05 0.05 79 1012.1
20260509005850 51 257 0.0 1.0 0.00 0.05 0.05 80 1012.8
20260509005341 51 257 0.0 0.0 0.00 0.05 0.05 79 1012.8
20260509004852 51 257 0.0 0.0 0.00 0.05 0.05 79 1012.7
20260509004538 51 0 0.0 0.0 0.00 0.05 0.05 78 1011.9
20260509004509 51 257 0.0 0.0 0.00 0.05 0.05 78 1012.6
20260509004402 51 257 0.0 0.0 0.00 0.05 0.05 78 1012.6
20260509003853 52 257 0.0 0.0 0.00 0.05 0.05 78 1012.4
20260509003404 52 257 0.0 0.0 0.00 0.05 0.05 77 1012.4
20260509003109 52 257 0.0 0.0 0.00 0.05 0.05 77 1012.5
20260509003045 52 0 0.0 0.0 0.00 0.05 0.05 76 1011.7
20260509002911 52 257 0.0 0.0 0.00 0.05 0.05 76 1012.3
20260509002340 53 257 0.0 1.0 0.00 0.05 0.05 75 1012.3
20260509001850 53 257 0.0 1.0 0.00 0.05 0.05 74 1012.2
20260509001618 53 257 0.0 1.0 0.00 0.05 0.05 74 1012.3
20260509001543 53 0 0.0 1.0 0.00 0.05 0.05 73 1011.5
20260509001338 54 257 0.0 1.0 0.00 0.05 0.05 73 1012.3
20260509000849 54 257 0.0 1.0 0.00 0.05 0.05 72 1012.3
20260509000344 55 257 0.0 1.0 0.00 0.05 0.05 71 1012.3
20260509000106 54 257 0.0 1.0 0.00 0.05 0.05 70 1012.4
20260509000039 55 0 0.0 1.0 0.00 0.05 0.05 70 1011.6
20260508235850 55 257 0.0 1.0 0.00 0.05 0.05 70 1012.3
20260508235340 56 257 0.0 1.0 0.00 0.05 0.05 69 1012.2
20260508234851 56 257 0.0 1.0 0.00 0.05 0.05 68 1012.1
20260508234615 56 257 0.0 1.0 0.00 0.05 0.05 68 1012.1
20260508234540 56 0 0.0 1.0 0.00 0.05 0.05 67 1011.4
20260508234340 56 257 0.0 1.0 0.00 0.05 0.05 68 1012.0
20260508233852 57 257 0.0 1.0 0.00 0.05 0.05 68 1011.9
20260508233344 57 257 0.0 1.0 0.00 0.05 0.05 66 1012.0
20260508233143 56 257 0.0 1.0 0.00 0.05 0.05 66 1012.1
20260508233048 56 0 0.0 3.0 0.00 0.05 0.05 65 1011.4
20260508232851 57 259 0.0 1.0 0.00 0.05 0.05 66 1012.0
20260508232401 57 231 1.0 3.0 0.00 0.05 0.05 64 1012.0
20260508231850 57 222 2.0 3.0 0.00 0.05 0.05 65 1012.1
20260508231615 57 248 1.0 2.0 0.00 0.05 0.05 66 1012.1
20260508231543 57 244 0.0 2.0 0.00 0.05 0.05 64 1011.4
20260508231340 57 286 0.0 2.0 0.00 0.05 0.05 66 1012.0
20260508230852 57 286 1.0 2.0 0.00 0.05 0.05 65 1011.9
20260508230343 57 221 1.0 2.0 0.00 0.05 0.05 64 1011.8
20260508230107 57 268 0.0 4.0 0.00 0.05 0.05 65 1011.9
20260508230047 57 0 0.0 4.0 0.00 0.05 0.05 64 1011.1
20260508225849 57 272 1.0 4.0 0.00 0.05 0.05 65 1011.7
20260508225340 58 284 2.0 5.0 0.00 0.05 0.05 63 1011.6
20260508224851 58 304 1.0 5.0 0.00 0.05 0.05 62 1011.6
20260508224617 57 296 1.0 4.0 0.00 0.05 0.05 62 1011.7
20260508224543 57 306 1.0 8.0 0.00 0.05 0.05 62 1011.0
20260508224340 58 330 3.0 8.0 0.00 0.05 0.05 63 1011.6
20260508223913 58 284 2.0 8.0 0.00 0.05 0.05 64 1011.7
20260508223344 58 334 2.0 7.0 0.00 0.05 0.05 63 1011.7
20260508223107 58 217 1.0 7.0 0.00 0.05 0.05 63 1011.7
20260508223040 58 211 1.0 7.0 0.00 0.05 0.05 62 1011.1
20260508222851 58 294 2.0 7.0 0.00 0.05 0.05 64 1011.6
20260508222342 58 236 1.0 9.0 0.00 0.05 0.05 62 1011.6
20260508221852 58 252 4.0 9.0 0.00 0.05 0.05 62 1011.6
20260508221539 58 253 1.0 6.0 0.00 0.05 0.05 63 1011.0
20260508221503 58 238 1.0 5.0 0.00 0.05 0.05 64 1011.7
20260508221402 58 213 1.0 8.0 0.00 0.05 0.05 63 1011.6
20260508220850 58 313 2.0 9.0 0.00 0.05 0.05 63 1011.5
20260508220342 58 275 4.0 8.0 0.00 0.05 0.05 62 1011.6
20260508220109 58 320 2.0 5.0 0.00 0.05 0.05 62 1011.7
20260508220041 58 263 2.0 6.0 0.00 0.05 0.05 62 1011.0
20260508215849 59 227 3.0 6.0 0.00 0.05 0.05 62 1011.5
20260508215339 59 267 2.0 8.0 0.00 0.05 0.05 62 1011.5
20260508214850 59 296 3.0 8.0 0.00 0.05 0.05 62 1011.6
20260508214621 58 197 3.0 11.0 0.00 0.05 0.05 63 1011.7
20260508214539 58 315 2.0 11.0 0.00 0.05 0.05 63 1010.9
20260508214340 58 279 3.0 11.0 0.00 0.05 0.05 63 1011.7
20260508213850 58 274 4.0 11.0 0.00 0.05 0.05 65 1011.7
20260508213341 58 213 2.0 5.0 0.00 0.05 0.05 64 1011.9
20260508213104 57 226 2.0 5.0 0.00 0.05 0.05 64 1012.0
20260508213041 57 229 1.0 5.0 0.00 0.05 0.05 63 1011.2
20260508212848 58 324 2.0 5.0 0.00 0.05 0.05 64 1012.0
20260508212341 57 245 1.0 4.0 0.00 0.05 0.05 65 1012.0
20260508211906 57 295 0.0 4.0 0.00 0.05 0.05 64 1012.0
20260508211613 57 292 1.0 4.0 0.00 0.05 0.05 64 1012.1
20260508211540 57 239 1.0 4.0 0.00 0.05 0.05 63 1011.4
20260508211339 57 175 2.0 4.0 0.00 0.05 0.05 65 1012.0
20260508210847 57 248 2.0 7.0 0.00 0.05 0.05 64 1012.1
20260508210414 58 252 3.0 7.0 0.00 0.05 0.05 64 1012.1
20260508210133 57 273 2.0 7.0 0.00 0.05 0.05 63 1012.1
20260508210040 57 322 2.0 7.0 0.00 0.05 0.05 63 1011.4
20260508205843 58 230 3.0 7.0 0.00 0.05 0.05 63 1012.1
20260508205352 58 277 3.0 7.0 0.00 0.05 0.05 62 1012.0
20260508204901 58 194 2.0 5.0 0.00 0.05 0.05 62 1012.0
20260508204602 58 280 2.0 9.0 0.00 0.05 0.05 63 1012.1
20260508204547 58 0 2.0 9.0 0.00 0.05 0.05 62 1011.3
20260508204348 58 244 2.0 9.0 0.00 0.05 0.05 61 1012.0
20260508203839 58 280 4.0 9.0 0.00 0.05 0.05 60 1011.8
20260508203349 59 232 5.0 13.0 0.00 0.05 0.05 60 1011.8
20260508203109 58 290 4.0 16.0 0.00 0.05 0.05 60 1011.9
20260508203048 58 260 3.0 16.0 0.00 0.05 0.05 59 1011.1
20260508202853 58 261 4.0 16.0 0.00 0.05 0.05 57 1011.7
20260508202341 58 41 6.0 16.0 0.00 0.05 0.05 60 1011.7
20260508201850 58 271 5.0 15.0 0.00 0.05 0.05 61 1011.8
20260508201615 57 248 8.0 18.0 0.00 0.05 0.05 60 1011.9
20260508201535 57 334 8.0 18.0 0.00 0.05 0.05 60 1011.1
20260508201339 58 279 5.0 18.0 0.00 0.05 0.05 63 1011.8
20260508200907 58 26 6.0 18.0 0.00 0.05 0.05 63 1011.8
20260508200357 57 287 4.0 11.0 0.00 0.05 0.05 66 1011.8
20260508200050 57 297 4.0 11.0 0.00 0.05 0.05 67 1011.2
20260508200002 57 289 5.0 11.0 0.00 0.05 0.05 68 1011.9
20260508195901 57 265 2.0 11.0 0.00 0.05 0.05 69 1011.8
20260508195349 57 265 4.0 11.0 0.00 0.05 0.05 69 1011.8
20260508194839 56 22 5.0 15.0 0.00 0.05 0.05 71 1012.0
20260508194621 55 267 5.0 15.0 0.00 0.05 0.05 69 1012.1
20260508194542 55 300 4.0 15.0 0.00 0.05 0.05 69 1011.4
20260508194347 55 327 3.0 9.0 0.00 0.05 0.05 71 1012.2
20260508193855 55 355 4.0 8.0 0.00 0.05 0.05 72 1012.3
20260508193345 54 296 2.0 10.0 0.00 0.05 0.05 73 1012.4
20260508193111 54 296 1.0 10.0 0.00 0.05 0.05 73 1012.5
20260508193042 54 292 4.0 10.0 0.00 0.05 0.05 72 1011.7
20260508192852 54 290 5.0 10.0 0.00 0.05 0.05 74 1012.5
20260508192341 54 294 2.0 11.0 0.00 0.05 0.05 71 1012.4
20260508191849 54 276 5.0 19.0 0.00 0.05 0.05 68 1012.8
20260508191617 54 299 5.0 19.0 0.00 0.05 0.05 67 1012.8
20260508191543 54 248 3.0 19.0 0.00 0.05 0.05 66 1012.1
20260508191359 55 18 4.0 19.0 0.00 0.05 0.05 65 1012.8
20260508190849 56 283 10.0 19.0 0.00 0.05 0.05 64 1012.8
20260508190340 57 197 7.0 16.0 0.00 0.05 0.05 61 1012.6
20260508190105 57 281 5.0 10.0 0.00 0.05 0.05 60 1012.5
20260508190036 57 305 4.0 15.0 0.00 0.05 0.05 59 1011.7
20260508185909 58 285 4.0 14.0 0.00 0.05 0.05 59 1012.3
20260508185358 58 279 7.0 15.0 0.00 0.05 0.05 58 1012.2
20260508184847 59 289 6.0 16.0 0.00 0.05 0.05 56 1012.1
20260508184649 58 273 6.0 18.0 0.00 0.05 0.05 57 1012.2
20260508184549 58 284 6.0 18.0 0.00 0.05 0.05 57 1011.5
20260508184338 59 262 8.0 18.0 0.00 0.05 0.05 56 1012.0
20260508183849 59 297 6.0 18.0 0.00 0.05 0.05 58 1012.1
20260508183340 58 290 6.0 15.0 0.00 0.05 0.05 59 1012.1
20260508183104 58 215 2.0 15.0 0.00 0.05 0.05 62 1012.1
20260508183039 58 278 4.0 15.0 0.00 0.05 0.05 60 1011.3
20260508182846 58 185 6.0 15.0 0.00 0.05 0.05 61 1012.1
20260508182336 58 199 5.0 14.0 0.00 0.05 0.05 60 1011.9
20260508181846 58 227 5.0 10.0 0.00 0.05 0.05 65 1011.9
20260508181614 57 293 1.0 10.0 0.00 0.05 0.05 63 1011.8
20260508181539 57 208 1.0 10.0 0.00 0.05 0.05 64 1011.0
20260508181337 57 279 2.0 10.0 0.00 0.05 0.05 63 1011.8
20260508180909 58 249 3.0 12.0 0.00 0.05 0.05 60 1011.7
20260508180358 58 267 5.0 16.0 0.00 0.05 0.05 60 1011.7
20260508180039 58 253 5.0 18.0 0.00 0.05 0.05 55 1011.1
20260508175845 58 170 9.0 18.0 0.00 0.05 0.05 54 1011.8
20260508175335 59 251 4.0 18.0 0.00 0.05 0.05 54 1011.7
20260508174846 59 217 5.0 11.0 0.00 0.05 0.05 54 1011.6
20260508174613 59 229 3.0 11.0 0.00 0.05 0.05 54 1011.6
20260508174546 59 206 5.0 14.0 0.00 0.05 0.05 53 1010.9
20260508174336 60 89 6.0 14.0 0.00 0.05 0.05 52 1011.5
20260508173847 60 221 5.0 14.0 0.00 0.05 0.05 53 1011.5
20260508173353 59 267 4.0 17.0 0.00 0.05 0.05 56 1011.7
20260508173040 58 326 6.0 17.0 0.00 0.05 0.05 54 1011.0
20260508173001 58 286 5.0 17.0 0.00 0.05 0.05 55 1011.8
20260508172859 59 257 7.0 17.0 0.00 0.05 0.05 53 1011.7
20260508172348 59 302 3.0 10.0 0.00 0.05 0.05 55 1011.8
20260508171838 59 206 2.0 12.0 0.00 0.05 0.05 57 1011.7
20260508171606 59 313 4.0 12.0 0.00 0.05 0.05 54 1011.8
20260508171538 59 307 3.0 16.0 0.00 0.05 0.05 53 1011.0
20260508171349 59 272 4.0 14.0 0.00 0.05 0.05 53 1011.7
20260508170900 59 190 5.0 16.0 0.00 0.05 0.05 53 1011.7
20260508170411 60 298 5.0 11.0 0.00 0.05 0.05 52 1011.6
20260508170116 60 294 3.0 11.0 0.00 0.05 0.05 52 1011.6
20260508170050 60 230 4.0 11.0 0.00 0.05 0.05 52 1011.0
20260508165836 61 247 6.0 11.0 0.00 0.05 0.05 51 1011.6
20260508165347 60 199 3.0 9.0 0.00 0.05 0.05 54 1011.6
20260508164841 60 200 4.0 15.0 0.00 0.05 0.05 53 1011.6
20260508164605 60 238 4.0 15.0 0.00 0.05 0.05 51 1011.6
20260508164545 60 0 5.0 15.0 0.00 0.05 0.05 53 1010.9
20260508164350 60 274 5.0 15.0 0.00 0.05 0.05 51 1011.5
20260508163838 61 198 5.0 11.0 0.00 0.05 0.05 50 1011.7
20260508163349 60 235 3.0 14.0 0.00 0.05 0.05 56 1011.8
20260508163110 60 240 5.0 14.0 0.00 0.05 0.05 50 1011.8
20260508163037 60 332 7.0 14.0 0.00 0.05 0.05 51 1011.2
20260508162836 60 315 7.0 14.0 0.00 0.05 0.05 53 1011.9
20260508162346 61 188 4.0 10.0 0.00 0.05 0.05 52 1011.9
20260508161855 60 171 3.0 10.0 0.00 0.05 0.05 55 1011.9
20260508161543 59 153 1.0 9.0 0.00 0.05 0.05 50 1011.4
20260508161506 59 162 2.0 8.0 0.00 0.05 0.05 50 1012.0
20260508161406 59 182 1.0 8.0 0.00 0.05 0.05 55 1012.0
20260508160836 58 229 4.0 9.0 0.00 0.05 0.05 53 1012.2
20260508160347 58 286 3.0 8.0 0.00 0.05 0.05 53 1012.2
20260508160109 58 190 2.0 8.0 0.00 0.05 0.05 53 1012.1
20260508160050 58 196 2.0 8.0 0.00 0.05 0.05 52 1011.6
20260508155853 58 32 3.0 8.0 0.00 0.05 0.05 52 1012.2
20260508155403 59 209 2.0 9.0 0.00 0.05 0.05 56 1012.3
20260508154850 59 319 3.0 10.0 0.00 0.05 0.05 53 1012.4
20260508154616 59 39 2.0 10.0 0.00 0.05 0.05 55 1012.3
20260508154548 59 15 2.0 10.0 0.00 0.05 0.05 54 1011.7
20260508154341 59 251 4.0 10.0 0.00 0.05 0.05 54 1012.4
20260508153852 59 264 4.0 11.0 0.00 0.05 0.05 56 1012.3
20260508153344 60 180 4.0 11.0 0.00 0.05 0.05 54 1012.2
20260508153109 59 297 3.0 10.0 0.00 0.05 0.05 54 1012.4
20260508153041 59 263 3.0 9.0 0.00 0.05 0.05 54 1011.6
20260508152850 59 190 3.0 9.0 0.00 0.05 0.05 57 1012.2
20260508152402 59 249 3.0 12.0 0.00 0.05 0.05 52 1012.2
20260508151851 59 284 5.0 10.0 0.00 0.05 0.05 54 1012.3
20260508151620 59 228 3.0 9.0 0.00 0.05 0.05 56 1012.3
20260508151539 59 256 2.0 9.0 0.00 0.05 0.05 53 1011.6
20260508151341 60 217 2.0 9.0 0.00 0.05 0.05 53 1012.2
20260508150913 59 297 2.0 8.0 0.00 0.05 0.05 53 1012.3
20260508150403 58 287 4.0 8.0 0.00 0.05 0.05 52 1012.3
20260508150107 58 312 3.0 8.0 0.00 0.05 0.05 51 1012.3
20260508150039 58 207 4.0 8.0 0.00 0.05 0.05 52 1011.7
20260508145849 58 206 4.0 8.0 0.00 0.05 0.05 57 1012.3
20260508145339 58 286 2.0 8.0 0.00 0.05 0.05 54 1012.3
20260508144850 57 290 2.0 10.0 0.00 0.05 0.05 54 1012.5
20260508144637 56 337 4.0 10.0 0.00 0.05 0.05 58 1012.6
20260508144538 57 213 4.0 10.0 0.00 0.05 0.05 55 1011.9
20260508144341 57 243 4.0 10.0 0.00 0.05 0.05 57 1012.6
20260508143852 56 289 2.0 8.0 0.00 0.05 0.05 61 1012.7
20260508143344 55 186 2.0 12.0 0.00 0.05 0.05 64 1012.8
20260508143114 55 242 3.0 15.0 0.00 0.05 0.05 62 1012.9
20260508143052 55 298 5.0 15.0 0.00 0.05 0.05 59 1012.2
20260508142850 56 272 5.0 15.0 0.00 0.05 0.05 61 1012.9
20260508142339 56 271 6.0 15.0 0.00 0.05 0.05 65 1012.8
20260508141849 56 303 4.0 10.0 0.00 0.05 0.05 63 1012.7
20260508141616 55 281 4.0 12.0 0.00 0.05 0.05 65 1012.8
20260508141542 55 240 2.0 12.0 0.00 0.05 0.05 62 1012.1